POLYITAN-1

Last updated on Fri Jul 11 2025 00:03:41 GMT+0000 (Coordinated Universal Time)

1 40042U 14033AJ 25191.52717144 .00007799 00000+0 37318-3 0 9996 2 40042 98.1027 184.0639 0007972 248.0780 111.9605 15.19265241601998
UTC large
Height (km)
Speed (km/s)
/
Latitude / Longitude
Inclination (degrees)
Orbital Period (minutes)
Azimuth
Elevation
Range (km)
Doppler Factor

Next 0 passes for location: London (51.5072 / 0.1276)

Sorry there are no passes over London.